Weather reports worldwide

Advertisment
Charlwood, United Kingdom (3769): temperature & dewpoint: 17.01.2019 23:00:00 - 23.01.2019 23:00:00 (GMT)Charlwood, United Kingdom (3769): temperature -20cm & temperature -100cm: 17.01.2019 23:00:00 - 23.01.2019 23:00:00 (GMT)Charlwood, United Kingdom (3769): wind speed: 17.01.2019 23:00:00 - 23.01.2019 23:00:00 (GMT)Charlwood, United Kingdom (3769): wind direction: 17.01.2019 23:00:00 - 23.01.2019 23:00:00 (GMT)Charlwood, United Kingdom (3769): reduced air pressure: 17.01.2019 23:00:00 - 23.01.2019 23:00:00 (GMT)Charlwood, United Kingdom (3769): visibility: 17.01.2019 23:00:00 - 23.01.2019 23:00:00 (GMT)Charlwood, United Kingdom (3769): sunshine duration: 17.01.2019 23:00:00 - 23.01.2019 23:00:00 (GMT)Charlwood, United Kingdom (3769): precipitation: 17.01.2019 23:00:00 - 23.01.2019 23:00:00 (GMT)
Date & Time tt [°C] td [°C] tt -20cm [°C] tt -100cm [°C] ff [km/h] ff [kn] dd ppp [hPa] vv [km] sd [min] rr [mm]
23.01.2019 23:00:00 -2,9 -3,8 - - 2 1 SSW 1008,8 4,6 0 0,0
23.01.2019 22:00:00 -2,3 -3,2 - - 4 2 NNW 1008,5 7 0 0,0
23.01.2019 21:00:00 -2,4 -3,6 - - 2 1 NW 1007,8 7 0 0,0
23.01.2019 20:00:00 -1,4 -2,6 - - 4 2 NW 1007,7 9 0 0,0
23.01.2019 19:00:00 -0,9 -2,6 - - 2 1 NW 1007,1 11 0 0,0
23.01.2019 18:00:00 0,2 -1,9 - - 5 3 NW 1006,8 18 0 0,0
23.01.2019 17:00:00 0,6 -1,9 - - 4 2 NNW 1005,9 14 0 0,0
23.01.2019 16:00:00 1,2 -1,8 - - 5 3 N 1004,8 15 0 0,0
23.01.2019 15:00:00 1,8 -1,4 - - 8 4 N 1004,2 21 0 0,0
23.01.2019 14:00:00 1,7 -1,6 - - 9 5 N 1003,3 14 0 0,0
23.01.2019 13:00:00 1,7 -1,5 - - 13 7 N 1002,9 17 0 0,0
23.01.2019 12:00:00 1,5 -1,8 - - 11 6 N 1002,5 23 12 0,0
23.01.2019 11:00:00 1,2 -1,8 - - 9 5 NNW 1002,1 22 0 0,0
23.01.2019 10:00:00 0,9 -1,8 - - 13 7 NNW 1001,3 16 0 0,0
23.01.2019 09:00:00 0,7 -2,0 4,4 7,4 11 6 N 1000,2 22 0 0,0
23.01.2019 08:00:00 0,4 -1,6 - - 13 7 NNW 999,7 16 0 0,0
23.01.2019 07:00:00 0,2 -1,3 - - 9 5 N 998,7 12 0 0,0
23.01.2019 06:00:00 0,1 -1,4 - - 9 5 N 998,2 11 0 0,0
23.01.2019 05:00:00 0,1 -1,7 - - 9 5 NNW 997,8 21 0 0,0
23.01.2019 04:00:00 0,1 -1,2 - - 8 4 N 997,1 12 0 0,0
23.01.2019 03:00:00 0,2 -1,0 - - 5 3 NW 997,3 14 0 0,0
23.01.2019 02:00:00 0,1 -0,6 - - 5 3 NW 997,3 8 0 0,0
23.01.2019 01:00:00 -0,1 -0,8 - - 11 6 NNW 997,2 2,8 0 0,0
23.01.2019 00:00:00 0,3 -0,3 - - 5 3 NW 997,2 6 - 0,0
22.01.2019 23:00:00 -0,6 -1,3 - - 2 1 WNW 997,3 8 0 0,0
22.01.2019 22:00:00 0,0 -0,8 - - 4 2 NW 997,4 6 0 0,0
22.01.2019 21:00:00 0,1 -0,6 - - 5 3 W 997,5 6 0 0,0
22.01.2019 20:00:00 0,5 -0,3 - - 4 2 WNW 997,8 9 0 0,2
22.01.2019 19:00:00 0,5 -0,7 - - 4 2 SW 998,2 6 0 0,6
22.01.2019 18:00:00 1,4 -0,1 - - 5 3 SW 998,8 21 0 0,2
22.01.2019 17:00:00 2,3 -0,6 - - 8 4 WSW 999,0 15 0 0,0
22.01.2019 16:00:00 3,8 -0,3 - - 9 5 WSW 999,6 40 0 0,0
22.01.2019 15:00:00 4,4 -0,2 - - 8 4 SSW 1000,0 30 0 0,0
22.01.2019 14:00:00 4,6 -0,2 - - 11 6 WSW 1001,0 45 18 0,0
22.01.2019 13:00:00 5,1 0,0 - - 8 4 W 1002,0 30 60 0,0
22.01.2019 12:00:00 4,8 0,9 - - 9 5 W 1003,0 16 60 0,0
22.01.2019 11:00:00 3,4 0,7 - - 13 7 W 1003,6 18 54 0,0
22.01.2019 10:00:00 2,4 0,4 - - 9 5 W 1004,1 19 42 0,0
22.01.2019 09:00:00 0,5 -0,3 4,2 7,7 9 5 WSW 1004,2 15 0 0,0
22.01.2019 08:00:00 0,7 -0,5 - - 9 5 W 1004,1 18 0 0,0
22.01.2019 07:00:00 1,4 0,3 - - 13 7 WSW 1004,2 16 0 0,0
22.01.2019 06:00:00 2,2 0,9 - - 11 6 WSW 1004,3 26 0 0,0
22.01.2019 05:00:00 3,2 1,6 - - 9 5 W 1004,2 40 0 0,2
22.01.2019 04:00:00 3,7 1,9 - - 9 5 W 1004,2 50 0 1,4
22.01.2019 03:00:00 4,8 3,6 - - 16 9 WSW 1005,0 8 0 5,2
22.01.2019 02:00:00 5,5 4,5 - - 21 11 SSW 1006,1 5 0 2,4
22.01.2019 01:00:00 5,3 4,1 - - 16 9 S 1007,9 5 0 0,4
22.01.2019 00:00:00 5,2 3,4 - - 16 9 S 1009,8 11 - 0,0
21.01.2019 23:00:00 4,2 2,6 - - 13 7 S 1011,6 9 0 0,0
21.01.2019 22:00:00 3,2 1,7 - - 9 5 S 1013,5 10 0 0,0
21.01.2019 21:00:00 1,5 0,0 - - 5 3 SSW 1014,9 11 0 0,0
21.01.2019 20:00:00 1,0 -0,8 - - 8 4 S 1016,1 9 0 0,0
21.01.2019 19:00:00 1,4 -0,4 - - 8 4 SSW 1017,4 7 0 0,0
21.01.2019 18:00:00 1,9 0,2 - - 9 5 SW 1018,6 6 0 0,0
21.01.2019 17:00:00 1,3 -0,8 - - 5 3 SW 1019,7 5 0 0,0
21.01.2019 16:00:00 2,7 -0,1 - - 9 5 SSW 1020,0 7 0 0,0
21.01.2019 15:00:00 3,7 0,1 - - 9 5 SW 1020,8 10 6 0,0
21.01.2019 14:00:00 4,1 0,3 - - 11 6 SW 1021,6 8 42 0,0
21.01.2019 13:00:00 4,3 3,0 - - 8 4 SW 1022,5 6 60 0,0
21.01.2019 12:00:00 1,9 1,5 - - 4 2 S 1023,6 2,8 36 0,2
21.01.2019 11:00:00 -1,2 -1,8 - - 2 1 S 1024,8 0,4 0 0,0
21.01.2019 10:00:00 -2,5 -3,0 - - 2 1 SSW 1025,2 - 0 0,0
21.01.2019 09:00:00 -5,0 -5,8 4,9 7,7 2 1 WNW 1025,1 0,4 0 0,0
21.01.2019 08:00:00 -6,2 -7,1 - - 2 1 W 1025,0 3,0 0 0,0
21.01.2019 07:00:00 -5,9 -6,8 - - 2 1 W 1025,0 3,2 0 0,0
21.01.2019 06:00:00 -6,4 -7,3 - - 0 0 N 1025,1 3,4 0 0,0
21.01.2019 05:00:00 -6,2 -7,1 - - 0 0 N 1024,8 2,9 0 0,0
21.01.2019 04:00:00 -5,9 -6,8 - - 2 1 W 1024,8 3,4 0 0,0
21.01.2019 03:00:00 -5,3 -6,2 - - 2 1 SW 1025,1 3,1 0 0,0
21.01.2019 02:00:00 -5,2 -6,0 - - 2 1 SSW 1024,7 3,1 0 0,0
21.01.2019 01:00:00 -4,5 -5,4 - - 2 1 NNE 1024,5 3,0 0 0,0
21.01.2019 00:00:00 -3,7 -4,6 - - 2 1 NNW 1024,5 2,7 - 0,0
20.01.2019 23:00:00 -3,0 -4,1 - - 4 2 NNW 1024,4 4,6 0 0,0
20.01.2019 22:00:00 -2,6 -4,0 - - 5 3 NNW 1023,8 6 0 0,0
20.01.2019 21:00:00 -2,0 -3,5 - - 4 2 WNW 1023,2 8 0 0,0
20.01.2019 20:00:00 -1,5 -3,5 - - 4 2 NNE 1022,5 9 0 0,0
20.01.2019 19:00:00 -1,6 -3,9 - - 5 3 N 1022,0 11 0 0,0
20.01.2019 18:00:00 -1,2 -4,7 - - 4 2 NE 1021,3 12 0 0,0
20.01.2019 17:00:00 1,1 -3,9 - - 4 2 N 1020,5 16 0 0,0
20.01.2019 16:00:00 3,9 -3,1 - - 5 3 N 1019,4 18 18 0,0
20.01.2019 15:00:00 4,4 -3,6 - - 11 6 NE 1018,5 27 60 0,0
20.01.2019 14:00:00 4,5 -2,2 - - 11 6 NNE 1018,4 24 54 0,0
20.01.2019 13:00:00 4,5 -1,2 - - 11 6 NNE 1018,2 16 60 0,0
20.01.2019 12:00:00 3,9 -1,0 - - 9 5 NE 1018,0 13 54 0,0
20.01.2019 11:00:00 3,3 -0,9 - - 8 4 NNE 1017,8 14 48 0,0
20.01.2019 10:00:00 1,9 -1,3 - - 5 3 NNE 1017,1 30 0 0,0
20.01.2019 09:00:00 1,4 -1,3 5,2 7,7 8 4 NE 1016,3 17 0 0,0
20.01.2019 08:00:00 0,4 -1,5 - - 4 2 N 1015,4 10 0 0,0
20.01.2019 07:00:00 0,3 -1,7 - - 5 3 NNE 1014,4 8 0 0,0
20.01.2019 06:00:00 0,4 -1,7 - - 5 3 N 1013,7 9 0 0,0
20.01.2019 05:00:00 0,9 -1,3 - - 9 5 E 1013,1 12 0 0,0
20.01.2019 04:00:00 1,1 -0,9 - - 5 3 NE 1013,0 10 0 0,0
20.01.2019 03:00:00 1,2 -0,8 - - 5 3 NE 1012,5 11 0 0,0
20.01.2019 02:00:00 1,5 -0,7 - - 8 4 NNE 1012,1 12 0 0,0
20.01.2019 01:00:00 1,7 -0,6 - - 4 2 NNE 1011,6 13 0 0,0
20.01.2019 00:00:00 2,0 -0,4 - - 9 5 ENE 1011,3 17 - 0,0
19.01.2019 23:00:00 2,3 -0,4 - - 13 7 E 1010,9 17 0 0,0
19.01.2019 22:00:00 2,9 0,1 - - 16 9 E 1010,4 21 0 0,0
19.01.2019 21:00:00 3,2 1,2 - - 13 7 E 1010,0 18 0 0,0
19.01.2019 20:00:00 3,2 1,4 - - 15 8 ENE 1009,7 11 0 0,0
19.01.2019 19:00:00 3,5 1,4 - - 15 8 E 1009,4 12 0 0,0
19.01.2019 18:00:00 3,9 2,0 - - 13 7 ESE 1009,0 12 0 0,0
19.01.2019 17:00:00 3,9 2,6 - - 13 7 ESE 1008,6 5 0 0,0
19.01.2019 16:00:00 4,1 2,7 - - 11 6 ESE 1008,3 9 0 0,0
19.01.2019 15:00:00 4,2 3,1 - - 11 6 ESE 1008,1 7 0 0,0
19.01.2019 14:00:00 4,3 3,4 - - 11 6 SSE 1008,2 8 0 0,0
19.01.2019 13:00:00 4,1 3,2 - - 15 8 SE 1008,6 3,4 0 0,0
19.01.2019 12:00:00 4,0 3,2 - - 13 7 SE 1009,0 6 0 0,2
19.01.2019 11:00:00 3,5 2,7 - - 11 6 SE 1009,5 2,2 0 0,0
19.01.2019 10:00:00 3,2 2,3 - - 13 7 SE 1009,6 4,2 0 0,0
19.01.2019 09:00:00 2,9 1,9 5,0 7,9 13 7 SE 1009,5 4,3 0 0,0
19.01.2019 08:00:00 2,6 1,4 - - 13 7 SE 1009,4 3,5 0 0,0
19.01.2019 07:00:00 2,4 0,7 - - 13 7 SE 1009,5 8 0 0,0
19.01.2019 06:00:00 2,5 0,6 - - 13 7 SE 1009,7 8 0 0,0
19.01.2019 05:00:00 2,8 0,1 - - 13 7 SSE 1010,1 11 0 0,0
19.01.2019 04:00:00 2,7 -0,9 - - 11 6 SE 1010,6 23 0 0,0
19.01.2019 03:00:00 2,8 -0,9 - - 15 8 SSE 1011,0 20 0 0,0
19.01.2019 02:00:00 1,9 -1,1 - - 11 6 SSE 1011,5 26 0 0,0
19.01.2019 01:00:00 1,3 -2,2 - - 9 5 SE 1012,0 30 0 0,0
19.01.2019 00:00:00 1,9 -2,0 - - 9 5 SSE 1012,7 26 - 0,0
18.01.2019 23:00:00 2,1 -1,9 - - 11 6 SSE 1012,9 26 0 0,0
18.01.2019 22:00:00 1,2 -2,4 - - 8 4 S 1013,2 24 0 0,0
18.01.2019 21:00:00 2,0 -1,7 - - 11 6 SSE 1013,4 30 0 0,0
18.01.2019 20:00:00 1,5 -2,0 - - 11 6 SSE 1013,6 28 0 0,0
18.01.2019 19:00:00 1,4 -2,2 - - 11 6 SSE 1014,0 29 0 0,0
18.01.2019 18:00:00 2,1 -2,2 - - 11 6 SSE 1014,2 30 0 0,0
18.01.2019 17:00:00 2,9 -1,6 - - 11 6 SSE 1014,6 27 0 0,0
18.01.2019 16:00:00 4,1 -1,8 - - 15 8 S 1015,0 35 0 0,0
18.01.2019 15:00:00 5,3 -1,9 - - 16 9 S 1015,2 45 6 0,0
18.01.2019 14:00:00 5,3 -1,5 - - 16 9 S 1015,6 30 6 0,0
18.01.2019 13:00:00 5,7 -1,9 - - 18 10 S 1016,2 35 48 0,0
18.01.2019 12:00:00 5,6 -0,3 - - 13 7 SSE 1016,8 25 48 0,0
18.01.2019 11:00:00 4,4 0,4 - - 8 4 SE 1017,6 35 48 0,0
18.01.2019 10:00:00 -0,6 -1,2 - - 2 1 E 1018,0 15 6 0,0
18.01.2019 09:00:00 -3,1 -3,7 5,7 7,9 2 1 NW 1018,3 9 0 0,0
18.01.2019 08:00:00 -3,6 -4,4 - - 2 1 WNW 1018,4 6 0 0,0
18.01.2019 07:00:00 -3,5 -4,4 - - 0 0 N 1018,4 8 0 0,0
18.01.2019 06:00:00 -3,7 -4,7 - - 2 1 W 1018,6 10 0 0,0
18.01.2019 05:00:00 -3,8 -4,8 - - 4 2 E 1018,9 12 0 0,0
18.01.2019 04:00:00 -3,2 -4,4 - - 0 0 N 1019,1 14 0 0,0
18.01.2019 03:00:00 -3,2 -4,5 - - 2 1 ENE 1019,5 15 0 0,0
18.01.2019 02:00:00 -2,5 -4,1 - - 4 2 WSW 1019,8 21 0 0,0
18.01.2019 01:00:00 -2,7 -4,2 - - 5 3 WSW 1019,7 15 0 0,0
18.01.2019 00:00:00 -2,1 -4,6 - - 4 2 SW 1019,5 21 - 0,0
17.01.2019 23:00:00 -1,5 -4,6 - - 5 3 SW 1019,4 30 0 0,0

tt = temperature
td = dewpoint
tt -20cm = temperature -20cm
tt -100cm = temperature -100cm
ff = wind speed
dd = wind direction
ppp = reduced air pressure
vv = visibility
sd = sunshine duration
rr = precipitation

Next stations